indice_tiempo,bolsa_g,burcap,merval,merval_arg,merval_25
2004-10-04,51553.0,2881.26,1167.09,1085.43,1151.0
2004-10-05,50346.26,2830.79,1135.37,1054.1,1151.0
2004-10-06,50553.64,2852.15,1128.0,1046.48,1113.0
2004-10-07,50978.02,2868.16,1140.26,1059.0,1126.0
2004-10-08,50763.08,2853.87,1128.74,1048.06,1115.0
2004-10-09,,,,,
2004-10-10,,,,,
2004-10-11,,,,,
2004-10-12,50534.98,2814.38,1138.06,1058.27,1124.0
2004-10-13,50877.96,2821.37,1165.66,1086.09,1148.0
2004-10-14,51354.06,2839.7,1192.65,1110.96,1171.0
2004-10-15,52538.85,2911.59,1228.85,1145.25,1205.0
2004-10-16,,,,,
2004-10-17,,,,,
2004-10-18,52753.71,2919.53,1243.95,1158.14,1218.0
2004-10-19,51742.59,2844.05,1215.42,1132.88,1193.0
2004-10-20,51478.11,2822.5,1215.24,1133.08,1192.0
2004-10-21,52230.43,2874.32,1234.56,1149.98,1211.0
2004-10-22,51185.04,2816.59,1204.46,1121.39,1182.0
2004-10-23,,,,,
2004-10-24,,,,,
2004-10-25,51172.04,2820.32,1209.47,1125.01,1186.0
2004-10-26,51522.01,2862.2,1225.35,1136.85,1200.0
2004-10-27,52974.58,2940.36,1286.08,1192.87,1255.0
2004-10-28,52901.86,2935.37,1280.77,1187.97,1248.0
2004-10-29,53055.2,2941.07,1287.14,1193.44,1254.0
2004-10-30,,,,,
2004-10-31,,,,,
2004-11-01,53889.86,2985.89,1314.5,1220.92,1280.0
2004-11-02,53483.59,2946.75,1299.92,1207.35,1267.0
2004-11-03,53253.37,2926.17,1289.42,1197.67,1257.0
2004-11-04,53656.29,2962.79,1302.9,1209.08,1268.0
2004-11-05,54377.1,3003.47,1325.17,1231.66,1291.0
2004-11-06,,,,,
2004-11-07,,,,,
2004-11-08,53904.52,2984.03,1296.96,1204.42,1266.0
2004-11-09,53712.16,2983.99,1286.19,1195.35,1258.0
2004-11-10,53724.24,3001.34,1297.23,1203.85,1266.0
2004-11-11,53021.33,2965.12,1284.26,1192.92,1253.0
2004-11-12,52935.0,2986.27,1257.6,1165.25,1229.0
2004-11-13,,,,,
2004-11-14,,,,,
2004-11-15,52378.06,2938.84,1247.81,1157.62,1219.0
2004-11-16,52958.94,2971.96,1257.75,1167.66,1228.0
2004-11-17,53178.41,2984.52,1262.14,1171.74,1233.0
2004-11-18,53216.17,2982.7,1263.63,1172.63,1234.0
2004-11-19,53133.36,2974.58,1254.45,1164.65,1226.0
2004-11-20,,,,,
2004-11-21,,,,,
2004-11-22,51123.61,2858.23,1193.37,1106.69,1168.0
2004-11-23,51320.04,2869.55,1204.14,1116.35,1178.0
2004-11-24,50574.7,2839.77,1182.17,1094.29,1155.0
2004-11-25,51009.25,2865.24,1187.32,1098.75,1160.0
2004-11-26,51158.56,2877.47,1183.16,1094.42,1157.0
2004-11-27,,,,,
2004-11-28,,,,,
2004-11-29,50751.94,2849.68,1167.46,1079.12,1142.0
2004-11-30,52184.2,2932.18,1213.09,1122.34,1186.0
2004-12-01,52376.3,2910.06,1220.95,1132.22,1194.0
2004-12-02,51293.26,2855.43,1193.59,1106.31,1169.0
2004-12-03,52269.18,2915.41,1218.75,1128.8,1192.0
2004-12-04,,,,,
2004-12-05,,,,,
2004-12-06,52471.89,2925.77,1223.54,1133.1,1196.0
2004-12-07,51643.34,2879.07,1204.62,1115.53,1177.0
2004-12-08,51643.34,2879.07,1204.62,1115.53,1177.0
2004-12-09,51902.86,2892.3,1219.0,1128.55,1189.0
2004-12-10,52179.44,2902.42,1234.3,1142.92,1203.0
2004-12-11,,,,,
2004-12-12,,,,,
2004-12-13,52185.04,2911.62,1233.32,1140.72,1202.0
2004-12-14,51936.37,2905.66,1237.49,1143.38,1205.0
2004-12-15,52276.64,2941.17,1253.47,1156.8,1219.0
2004-12-16,52153.71,2915.47,1246.68,1151.48,1219.0
2004-12-17,52272.43,2921.62,1255.84,1160.42,1219.0
2004-12-18,,,,,
2004-12-19,,,,,
2004-12-20,54045.73,2995.41,1305.87,1209.37,1219.0
2004-12-21,54515.57,3016.24,1325.29,1227.8,1219.0
2004-12-22,54253.96,2991.87,1322.37,1225.77,1282.0
2004-12-23,55430.43,3052.04,1356.6,1259.43,1314.0
2004-12-24,55838.3,3080.94,1366.69,1268.83,1325.0
2004-12-25,,,,,
2004-12-26,,,,,
2004-12-27,56122.2,3082.13,1376.25,1278.83,1334.0
2004-12-28,56241.8,3085.71,1366.73,1270.3,1328.0
2004-12-29,56675.95,3123.55,1389.53,1290.64,1349.0
2004-12-30,56420.89,3099.0,1384.61,1285.82,1344.0
2004-12-31,56639.12,3113.23,1375.37,1278.41,1338.0
2005-01-01,,,,,
2005-01-02,,,,,
2005-01-03,56154.11,3064.3,1369.5,1275.31,1332.0
2005-01-04,55181.48,3019.69,1337.46,1244.09,1301.0
2005-01-05,53885.97,2945.71,1305.56,1214.51,1270.0
2005-01-06,54293.5,2971.24,1316.63,1225.04,1281.0
2005-01-07,54025.12,2948.29,1309.45,1218.9,1275.0
2005-01-08,,,,,
2005-01-09,,,,,
2005-01-10,55086.78,3001.89,1334.58,1243.77,1299.0
2005-01-11,55660.84,3019.97,1350.92,1260.88,1316.0
2005-01-12,55366.72,2988.44,1344.11,1255.69,1311.0
2005-01-13,55428.84,3003.6,1347.29,1258.02,1314.0
2005-01-14,55528.21,3007.11,1344.7,1256.28,1310.0
2005-01-15,,,,,
2005-01-16,,,,,
2005-01-17,55729.92,3018.79,1348.69,1259.51,1315.0
2005-01-18,55587.74,3004.71,1345.47,1258.35,1312.0
2005-01-19,55528.29,3002.66,1336.96,1249.67,1303.0
2005-01-20,55016.61,2967.53,1319.19,1233.3,1286.0
2005-01-21,55157.96,2984.16,1325.74,1238.31,1292.0
2005-01-22,,,,,
2005-01-23,,,,,
2005-01-24,54930.97,2968.86,1311.92,1224.99,1280.0
2005-01-25,54881.94,2953.16,1309.67,1225.32,1281.0
2005-01-26,56226.61,3024.84,1355.32,1269.48,1325.0
2005-01-27,56861.41,3070.14,1378.43,1290.7,1346.0
2005-01-28,57041.22,3088.53,1381.92,1292.1,1349.0
2005-01-29,,,,,
2005-01-30,,,,,
2005-01-31,56939.7,3079.03,1373.79,1285.19,1343.0
2005-02-01,57139.65,3093.5,1373.41,1286.11,1345.0
2005-02-02,57009.44,3108.94,1371.02,1280.59,1343.0
2005-02-03,57969.92,3174.97,1399.23,1305.1,1370.0
2005-02-04,59074.68,3223.81,1428.54,1334.54,1397.0
2005-02-05,,,,,
2005-02-06,,,,,
2005-02-07,59322.69,3239.08,1434.03,1338.27,1402.0
2005-02-08,60582.16,3321.01,1480.11,1380.03,1443.0
2005-02-09,60850.88,3330.86,1484.6,1385.1,1448.0
2005-02-10,60936.85,3337.54,1487.39,1389.18,1452.0
2005-02-11,61343.5,3357.1,1496.91,1397.77,1462.0
2005-02-12,,,,,
2005-02-13,,,,,
2005-02-14,62283.54,3400.79,1517.93,1418.52,1485.0
2005-02-15,61962.76,3368.57,1493.96,1394.3,1463.0
2005-02-16,62871.37,3420.73,1508.84,1406.06,1477.0
2005-02-17,64124.12,3460.96,1531.86,1431.46,1499.0
2005-02-18,65143.23,3532.84,1557.77,1455.25,1524.0
2005-02-19,,,,,
2005-02-20,,,,,
2005-02-21,64232.44,3474.48,1534.01,1436.25,1501.0
2005-02-22,64993.14,3523.56,1556.03,1458.14,1524.0
2005-02-23,64342.0,3473.54,1520.9,1425.36,1493.0
2005-02-24,64621.46,3510.85,1529.64,1430.58,1500.0
2005-02-25,67182.68,3679.31,1600.32,1494.21,1567.0
2005-02-26,,,,,
2005-02-27,,,,,
2005-02-28,66296.8,3666.1,1558.62,1448.23,1528.0
2005-03-01,67926.16,3743.89,1598.38,1489.06,1568.0
2005-03-02,67217.64,3702.86,1582.39,1473.34,1553.0
2005-03-03,67024.78,3693.2,1577.13,1467.0,1547.0
2005-03-04,67454.05,3722.84,1581.36,1469.47,1551.0
2005-03-05,,,,,
2005-03-06,,,,,
2005-03-07,67855.83,3761.36,1590.74,1474.67,1559.0
2005-03-08,67625.29,3733.27,1596.81,1482.44,1564.0
2005-03-09,64806.46,3581.78,1530.02,1416.9,1498.0
2005-03-10,62504.93,3463.04,1471.89,1361.89,1440.0
2005-03-11,61428.54,3416.45,1435.95,1319.81,1398.0
2005-03-12,,,,,
2005-03-13,,,,,
2005-03-14,58907.05,3287.58,1374.88,1260.06,1336.0
2005-03-15,59198.96,3298.19,1386.08,1271.33,1349.0
2005-03-16,59473.57,3307.64,1388.09,1274.34,1353.0
2005-03-17,62041.53,3462.13,1452.94,1336.01,1416.0
2005-03-18,62325.98,3474.87,1458.19,1340.87,1419.0
2005-03-19,,,,,
2005-03-20,,,,,
2005-03-21,60780.74,3383.17,1414.4,1299.96,1376.0
2005-03-22,60289.26,3366.96,1393.57,1280.63,1358.0
2005-03-23,59296.68,3298.99,1364.28,1255.1,1331.0
2005-03-24,,,,,
2005-03-25,,,,,
2005-03-26,,,,,
2005-03-27,,,,,
2005-03-28,58824.14,3271.63,1347.99,1239.65,1315.0
2005-03-29,58827.42,3262.06,1347.77,1241.51,1316.0
2005-03-30,60375.62,3355.08,1401.12,1292.52,1367.0
2005-03-31,60382.77,3364.4,1400.42,1291.22,1367.0
2005-04-01,61343.73,3427.03,1424.31,1313.42,1390.0
2005-04-02,,,,,
2005-04-03,,,,,
2005-04-04,60203.59,3373.49,1392.51,1282.24,1359.0
2005-04-05,60615.02,3401.96,1411.28,1300.12,1375.0
2005-04-06,60679.0,3413.77,1423.3,1311.57,1386.0
2005-04-07,60406.82,3412.25,1423.47,1310.49,1385.0
2005-04-08,60128.24,3383.66,1415.33,1303.9,1379.0
2005-04-09,,,,,
2005-04-10,,,,,
2005-04-11,59574.32,3360.36,1408.42,1296.49,1370.0
2005-04-12,58286.54,3265.49,1372.59,1264.88,1336.0
2005-04-13,57418.68,3189.94,1344.56,1241.12,1311.0
2005-04-14,56410.34,3124.14,1325.84,1225.27,1292.0
2005-04-15,54627.25,3011.06,1276.48,1180.16,1246.0
2005-04-16,,,,,
2005-04-17,,,,,
2005-04-18,55625.65,3074.64,1307.9,1209.77,1275.0
2005-04-19,57114.68,3214.44,1344.61,1238.74,1310.0
2005-04-20,55991.76,3135.74,1309.48,1206.13,1276.0
2005-04-21,57538.66,3232.41,1354.73,1247.28,1320.0
2005-04-22,57640.71,3233.92,1354.68,1247.67,1319.0
2005-04-23,,,,,
2005-04-24,,,,,
2005-04-25,58199.09,3266.17,1368.82,1259.84,1335.0
2005-04-26,57630.28,3213.91,1352.68,1246.37,1321.0
2005-04-27,57875.41,3200.56,1356.3,1252.9,1327.0
2005-04-28,56652.06,3121.17,1324.75,1224.29,1298.0
2005-04-29,57597.72,3199.82,1348.35,1244.04,1321.0
2005-04-30,,,,,
2005-05-01,,,,,
2005-05-02,58898.91,3282.77,1378.76,1272.51,1350.0
2005-05-03,59886.52,3374.54,1404.39,1292.63,1373.0
2005-05-04,61189.65,3473.04,1442.13,1325.56,1410.0
2005-05-05,61042.32,3519.56,1438.09,1315.81,1405.0
2005-05-06,60659.85,3492.55,1429.37,1308.61,1397.0
2005-05-07,,,,,
2005-05-08,,,,,
2005-05-09,60260.21,3481.68,1406.85,1285.23,1377.0
2005-05-10,59557.39,3432.29,1381.34,1262.12,1352.0
2005-05-11,60029.86,3428.4,1400.46,1283.35,1371.0
2005-05-12,59566.52,3395.99,1389.8,1273.87,1362.0
2005-05-13,60982.32,3477.83,1439.61,1320.98,1408.0
2005-05-14,,,,,
2005-05-15,,,,,
2005-05-16,61240.91,3473.14,1458.18,1341.49,1425.0
2005-05-17,60681.33,3448.48,1444.73,1328.05,1413.0
2005-05-18,61323.06,3497.94,1459.33,1340.23,1429.0
2005-05-19,61374.33,3490.97,1457.24,1339.04,1428.0
2005-05-20,60978.68,3473.43,1435.08,1317.32,1407.0
2005-05-21,,,,,
2005-05-22,,,,,
2005-05-23,61112.61,3490.9,1449.63,1329.84,1422.0
2005-05-24,61567.84,3526.48,1458.17,1336.36,1431.0
2005-05-25,,,,,
2005-05-26,61193.21,3495.61,1447.06,1326.44,1423.0
2005-05-27,61581.49,3536.67,1460.72,1336.73,1439.0
2005-05-28,,,,,
2005-05-29,,,,,
2005-05-30,62807.06,3604.17,1497.84,1372.0,1476.0
2005-05-31,62202.92,3548.16,1485.55,1363.98,1463.0
2005-06-01,62927.44,3615.08,1516.17,1391.57,1491.0
2005-06-02,63581.61,3661.92,1531.17,1404.59,1503.0
2005-06-03,62665.6,3626.43,1506.12,1379.87,1476.0
2005-06-04,,,,,
2005-06-05,,,,,
2005-06-06,61859.7,3577.56,1486.07,1361.19,1456.0
2005-06-07,61988.45,3602.81,1490.3,1363.38,1462.0
2005-06-08,61735.7,3598.49,1489.29,1362.33,1459.0
2005-06-09,60544.1,3542.39,1450.96,1324.95,1420.0
2005-06-10,60257.5,3527.61,1435.3,1309.37,1406.0
2005-06-11,,,,,
2005-06-12,,,,,
2005-06-13,59977.73,3503.58,1421.25,1296.7,1394.0
2005-06-14,60381.79,3521.2,1435.28,1310.47,1407.0
2005-06-15,60926.95,3549.51,1453.66,1328.13,1426.0
2005-06-16,61271.61,3584.23,1458.7,1330.91,1431.0
2005-06-17,61140.75,3590.41,1443.99,1315.17,1418.0
2005-06-18,,,,,
2005-06-19,,,,,
2005-06-20,,,,,
2005-06-21,61740.45,3647.36,1462.09,1329.88,1436.0
2005-06-22,61885.04,3668.35,1464.8,1331.8,1438.0
2005-06-23,61229.18,3648.57,1439.43,1305.27,1414.0
2005-06-24,61195.11,3648.55,1444.61,1310.22,1418.0
2005-06-25,,,,,
2005-06-26,,,,,
2005-06-27,60571.25,3635.91,1421.25,1285.17,1397.0
2005-06-28,60688.58,3662.56,1419.64,1281.2,1396.0
2005-06-29,59457.13,3584.31,1374.55,1240.1,1354.0
2005-06-30,59154.77,3562.4,1367.41,1232.86,1350.0
2005-07-01,59087.91,3554.37,1361.32,1227.41,1345.0
2005-07-02,,,,,
2005-07-03,,,,,
2005-07-04,59330.69,3570.77,1366.92,1231.53,1352.0
2005-07-05,59927.11,3631.68,1382.08,1241.99,1367.0
2005-07-06,59429.56,3622.74,1356.22,1214.0,1342.0
2005-07-07,60170.95,3684.56,1391.1,1246.04,1375.0
2005-07-08,60028.13,3690.69,1386.77,1241.17,1370.0
2005-07-09,,,,,
2005-07-10,,,,,
2005-07-11,60956.3,3786.68,1410.36,1258.27,1392.0
2005-07-12,61468.32,3811.05,1422.31,1271.71,1402.0
2005-07-13,61485.55,3799.73,1423.36,1275.37,1403.0
2005-07-14,62354.77,3800.08,1466.57,1323.75,1444.0
2005-07-15,62129.93,3782.3,1462.94,1320.12,1441.0
2005-07-16,,,,,
2005-07-17,,,,,
2005-07-18,62304.14,3787.14,1473.03,1330.5,1451.0
2005-07-19,62956.56,3826.83,1492.18,1349.34,1470.0
2005-07-20,63037.0,3848.75,1487.81,1341.79,1466.0
2005-07-21,62709.22,3824.81,1478.99,1333.83,1459.0
2005-07-22,62841.14,3854.29,1481.79,1334.36,1461.0
2005-07-23,,,,,
2005-07-24,,,,,
2005-07-25,61712.5,3789.24,1453.93,1308.9,1434.0
2005-07-26,62701.78,3855.99,1479.65,1332.58,1459.0
2005-07-27,63693.24,3925.12,1502.93,1352.22,1482.0
2005-07-28,64121.44,3988.62,1511.16,1353.76,1491.0
2005-07-29,64351.34,4013.01,1507.59,1349.07,1486.0
2005-07-30,,,,,
2005-07-31,,,,,
2005-08-01,64905.37,4068.95,1522.71,1360.69,1500.0
2005-08-02,65632.41,4147.96,1535.51,1367.4,1511.0
2005-08-03,64866.65,4098.89,1508.23,1340.49,1486.0
2005-08-04,65511.59,4176.61,1526.85,1352.73,1504.0
2005-08-05,65137.2,4141.37,1517.9,1344.75,1498.0
2005-08-06,,,,,
2005-08-07,,,,,
2005-08-08,64293.6,4076.97,1494.0,1324.08,1475.0
2005-08-09,64626.29,4085.04,1504.04,1334.66,1485.0
2005-08-10,65104.58,4109.3,1509.23,1338.98,1491.0
2005-08-11,65090.25,4143.55,1496.59,1321.37,1480.0
2005-08-12,64480.04,4101.96,1479.33,1305.54,1464.0
2005-08-13,,,,,
2005-08-14,,,,,
2005-08-15,,,,,
2005-08-16,64124.7,4054.33,1470.98,1301.6,1456.0
2005-08-17,64727.65,4092.62,1490.84,1321.49,1473.0
2005-08-18,64377.32,4057.96,1484.66,1317.34,1466.0
2005-08-19,64543.22,4080.97,1495.42,1327.57,1474.0
2005-08-20,,,,,
2005-08-21,,,,,
2005-08-22,65955.67,4204.17,1532.64,1358.67,1508.0
2005-08-23,65852.59,4201.58,1525.82,1351.88,1501.0
2005-08-24,66370.63,4232.03,1535.99,1360.83,1512.0
2005-08-25,67796.16,4348.77,1573.08,1391.45,1547.0
2005-08-26,67581.28,4365.13,1564.76,1379.1,1540.0
2005-08-27,,,,,
2005-08-28,,,,,
2005-08-29,68312.61,4432.75,1584.0,1394.96,1559.0
2005-08-30,68421.77,4456.55,1589.42,1397.45,1564.0
2005-08-31,68074.5,4466.06,1581.65,1386.49,1556.0
2005-09-01,69357.04,4597.3,1612.94,1409.06,1585.0
2005-09-02,68656.33,4530.84,1592.68,1392.88,1567.0
2005-09-03,,,,,
2005-09-04,,,,,
2005-09-05,69382.49,4613.51,1610.29,1404.43,1583.0
2005-09-06,69266.63,4588.71,1607.41,1404.5,1580.0
2005-09-07,68991.78,4555.3,1608.03,1407.75,1583.0
2005-09-08,69201.25,4586.19,1615.58,1412.73,1591.0
2005-09-09,68917.01,4562.36,1611.47,1409.48,1589.0
2005-09-10,,,,,
2005-09-11,,,,,
2005-09-12,68287.01,4478.32,1587.4,1392.16,1566.0
2005-09-13,68472.55,4466.29,1589.31,1395.77,1570.0
2005-09-14,69772.1,4548.17,1618.1,1422.01,1601.0
2005-09-15,69928.67,4563.41,1629.56,1431.88,1611.0
2005-09-16,70131.37,4585.96,1628.13,1426.93,1611.0
2005-09-17,,,,,
2005-09-18,,,,,
2005-09-19,70620.72,4642.85,1649.95,1444.52,1630.0
2005-09-20,70464.38,4655.33,1644.19,1436.27,1624.0
2005-09-21,71206.66,4701.62,1658.95,1448.11,1639.0
2005-09-22,71173.91,4710.94,1652.38,1439.88,1633.0
2005-09-23,71669.59,4754.2,1658.84,1442.88,1640.0
2005-09-24,,,,,
2005-09-25,,,,,
2005-09-26,71854.16,4782.58,1663.38,1445.12,1644.0
2005-09-27,72343.12,4854.55,1668.49,1443.87,1649.0
2005-09-28,73349.03,4975.15,1687.78,1453.89,1667.0
2005-09-29,74501.59,5055.65,1709.89,1474.84,1687.0
2005-09-30,74533.99,5068.22,1694.83,1459.29,1673.0
2005-10-01,,,,,
2005-10-02,,,,,
2005-10-03,76054.2,5194.5,1731.33,1489.33,1705.0
2005-10-04,74274.27,5014.73,1687.25,1459.44,1665.0
2005-10-05,72659.93,4864.17,1647.37,1429.95,1628.0
2005-10-06,71078.77,4716.46,1621.02,1416.92,1605.0
2005-10-07,72480.21,4852.54,1655.9,1439.11,1637.0
2005-10-08,,,,,
2005-10-09,,,,,
2005-10-10,,,,,
2005-10-11,71557.53,4769.4,1643.96,1432.96,1626.0
2005-10-12,69888.23,4617.88,1604.56,1406.11,1590.0
2005-10-13,68747.28,4512.91,1586.09,1395.02,1572.0
2005-10-14,69645.38,4604.35,1603.71,1404.51,1588.0
2005-10-15,,,,,
2005-10-16,,,,,
2005-10-17,70137.27,4623.93,1613.68,1415.89,1599.0
2005-10-18,68835.88,4504.78,1589.97,1402.7,1577.0
2005-10-19,69629.16,4568.9,1601.59,1408.87,1589.0
2005-10-20,68177.77,4416.55,1572.69,1394.65,1562.0
2005-10-21,69306.73,4506.2,1593.11,1409.56,1581.0
2005-10-22,,,,,
2005-10-23,,,,,
2005-10-24,70719.86,4620.07,1623.16,1432.95,1610.0
2005-10-25,69170.49,4494.57,1577.02,1392.23,1568.0
2005-10-26,70039.12,4558.81,1609.78,1423.12,1598.0
2005-10-27,68658.63,4444.95,1577.67,1397.99,1567.0
2005-10-28,69826.45,4551.98,1602.63,1415.77,1590.0
2005-10-29,,,,,
2005-10-30,,,,,
2005-10-31,69808.74,4563.92,1608.86,1421.46,1593.0
2005-11-01,69709.45,4547.38,1621.48,1438.15,1603.0
2005-11-02,70427.72,4645.2,1638.95,1441.64,1619.0
2005-11-03,72119.05,4779.31,1683.53,1480.4,1661.0
2005-11-04,71715.19,4732.18,1672.01,1473.96,1650.0
2005-11-05,,,,,
2005-11-06,,,,,
2005-11-07,70865.67,4658.01,1646.92,1451.68,1627.0
2005-11-08,69858.48,4602.44,1615.59,1420.05,1597.0
2005-11-09,69002.23,4536.75,1592.43,1399.75,1576.0
2005-11-10,68356.95,4451.33,1581.28,1398.06,1566.0
2005-11-11,68758.56,4465.16,1592.51,1412.05,1576.0
2005-11-12,,,,,
2005-11-13,,,,,
2005-11-14,68922.34,4482.29,1594.94,1412.35,1578.0
2005-11-15,68035.01,4429.98,1572.84,1391.38,1556.0
2005-11-16,68316.53,4455.24,1584.58,1400.91,1566.0
2005-11-17,69156.05,4529.57,1600.84,1410.71,1581.0
2005-11-18,69204.45,4508.81,1603.75,1420.37,1584.0
2005-11-19,,,,,
2005-11-20,,,,,
2005-11-21,69425.43,4548.07,1606.96,1417.77,1586.0
2005-11-22,70255.08,4628.23,1625.73,1428.68,1605.0
2005-11-23,70336.87,4636.97,1627.38,1430.36,1607.0
2005-11-24,70508.45,4641.9,1631.47,1434.62,1611.0
2005-11-25,70548.66,4648.83,1629.63,1432.35,1609.0
2005-11-26,,,,,
2005-11-27,,,,,
2005-11-28,67920.48,4473.24,1556.52,1363.47,1539.0
2005-11-29,67522.73,4459.7,1533.47,1337.06,1517.0
2005-11-30,68199.89,4492.97,1554.67,1360.44,1537.0
2005-12-01,67302.08,4450.24,1519.86,1319.71,1505.0
2005-12-02,68709.01,4594.56,1543.68,1328.82,1527.0
2005-12-03,,,,,
2005-12-04,,,,,
2005-12-05,69355.76,4668.44,1560.39,1339.09,1542.0
2005-12-06,69377.43,4683.17,1558.67,1333.99,1540.0
2005-12-07,68193.2,4565.17,1525.53,1308.98,1510.0
2005-12-08,,,,,
2005-12-09,68671.05,4615.74,1535.28,1313.15,1519.0
2005-12-10,,,,,
2005-12-11,,,,,
2005-12-12,68273.23,4582.81,1521.89,1300.05,1507.0
2005-12-13,68075.34,4572.43,1515.42,1293.38,1501.0
2005-12-14,68547.4,4605.97,1525.57,1304.6,1510.0
2005-12-15,69364.63,4664.95,1554.99,1335.36,1537.0
2005-12-16,68506.25,4601.4,1524.5,1304.25,1509.0
2005-12-17,,,,,
2005-12-18,,,,,
2005-12-19,67468.55,4506.41,1502.44,1288.07,1489.0
2005-12-20,66865.55,4488.37,1489.36,1272.33,1475.0
2005-12-21,66812.23,4489.69,1491.27,1273.95,1476.0
2005-12-22,67517.02,4528.0,1516.24,1300.86,1501.0
2005-12-23,67740.05,4539.43,1529.12,1316.73,1512.0
2005-12-24,,,,,
2005-12-25,,,,,
2005-12-26,68504.27,4586.94,1550.96,1338.94,1533.0
2005-12-27,67783.78,4506.15,1533.08,1327.81,1517.0
2005-12-28,68340.21,4556.11,1537.59,1328.07,1521.0
2005-12-29,68822.65,4601.48,1543.31,1331.78,1526.0
2005-12-30,,,,,
2005-12-31,,,,,
2006-01-01,,,,,
2006-01-02,69477.76,4666.13,1555.67,1335.64,1526.0
2006-01-03,71373.84,4823.5,1602.0,1370.16,1581.0
2006-01-04,71623.2,4822.66,1610.52,1386.9,1591.0
2006-01-05,71455.48,4807.47,1599.91,1375.25,1581.0
2006-01-06,72418.7,4882.05,1616.29,1382.47,1597.0
2006-01-07,,,,,
2006-01-08,,,,,
2006-01-09,72873.77,4915.35,1621.12,1383.53,1601.0
2006-01-10,72655.09,4917.11,1616.41,1372.02,1596.0
2006-01-11,73821.72,5018.75,1649.67,1397.35,1626.0
2006-01-12,73422.81,4980.38,1638.09,1394.2,1615.0
2006-01-13,73738.27,5016.61,1645.24,1395.53,1621.0
2006-01-14,,,,,
2006-01-15,,,,,
2006-01-16,74033.64,5046.13,1653.63,1402.83,1628.0
2006-01-17,74696.9,5111.09,1661.59,1394.55,1636.0
2006-01-18,73991.77,5043.45,1645.52,1384.82,1622.0
2006-01-19,77068.87,5327.82,1701.18,1398.31,1673.0
2006-01-20,77093.98,5348.44,1701.88,1392.7,1672.0
2006-01-21,,,,,
2006-01-22,,,,,
2006-01-23,77381.76,5395.03,1698.98,1371.19,1669.0
2006-01-24,77328.74,5404.57,1697.92,1365.04,1668.0
2006-01-25,77237.53,5382.13,1708.41,1393.59,1677.12
2006-01-26,78252.2,5481.36,1724.46,1395.09,1690.88
2006-01-27,79449.41,5590.75,1739.83,1392.52,1704.01
2006-01-28,,,,,
2006-01-29,,,,,
2006-01-30,80323.02,5671.88,1771.55,1421.66,1732.14
2006-01-31,81085.72,5729.88,1793.97,1442.29,1752.28
2006-02-01,79174.08,5554.35,1747.15,1410.36,1710.2
2006-02-02,76997.86,5361.55,1699.35,1378.36,1667.07
2006-02-03,76929.48,5355.72,1703.33,1382.79,1670.9
2006-02-04,,,,,
2006-02-05,,,,,
2006-02-06,77784.84,5430.67,1725.78,1396.2,1691.31
2006-02-07,76147.93,5285.66,1695.04,1384.29,1662.6
2006-02-08,77337.85,5405.39,1717.53,1385.63,1682.61
2006-02-09,76963.64,5374.11,1704.83,1371.81,1671.34
2006-02-10,76681.83,5345.86,1695.48,1365.37,1662.79
2006-02-11,,,,,
2006-02-12,,,,,
2006-02-13,75388.59,5232.18,1673.03,1361.47,1641.19
2006-02-14,75275.53,5224.35,1669.7,1354.05,1637.57
2006-02-15,75021.59,5178.73,1669.17,1369.8,1638.78
2006-02-16,76249.54,5294.64,1695.64,1380.96,1662.87
2006-02-17,76632.77,5339.56,1699.49,1374.14,1666.46
2006-02-18,,,,,
2006-02-19,,,,,
2006-02-20,77715.4,5441.73,1721.14,1381.8,1685.94
2006-02-21,78807.43,5533.65,1743.59,1391.2,1707.06
2006-02-22,78031.38,5454.9,1728.2,1387.44,1693.18
2006-02-23,77482.96,5412.13,1714.13,1375.18,1679.27
2006-02-24,78169.54,5480.33,1726.65,1378.65,1690.6
2006-02-25,,,,,
2006-02-26,,,,,
2006-02-27,78373.63,5501.0,1736.22,1389.53,1699.3
2006-02-28,77346.15,5417.5,1714.05,1374.65,1678.15
2006-03-01,78895.04,5557.72,1741.87,1381.58,1703.91
2006-03-02,81514.69,5816.21,1795.22,1395.19,1751.24
2006-03-03,82885.35,5940.03,1823.56,1410.7,1776.65
2006-03-04,,,,,
2006-03-05,,,,,
2006-03-06,82210.21,5888.47,1815.8,1415.03,1768.8
2006-03-07,80243.94,5723.34,1776.48,1392.05,1731.95
2006-03-08,80209.98,5731.41,1776.06,1386.21,1731.26
2006-03-09,79526.59,5668.45,1764.76,1386.14,1721.45
2006-03-10,79948.41,5722.67,1762.56,1363.97,1718.67
2006-03-11,,,,,
2006-03-12,,,,,
2006-03-13,80412.59,5766.45,1771.05,1366.62,1725.46
2006-03-14,81467.3,5864.84,1778.32,1351.6,1732.32
2006-03-15,82328.95,5937.86,1799.1,1368.05,1751.75
2006-03-16,82647.97,5964.38,1817.06,1392.14,1768.18
2006-03-17,82333.2,5919.5,1810.63,1394.86,1763.67
2006-03-18,,,,,
2006-03-19,,,,,
2006-03-20,82376.2,5920.3,1816.95,1405.49,1768.87
2006-03-21,81821.97,5875.65,1806.16,1399.65,1759.63
2006-03-22,81518.71,5853.19,1793.09,1382.9,1747.14
2006-03-23,81332.55,5839.85,1794.12,1387.23,1747.28
2006-03-24,,,,,
2006-03-25,,,,,
2006-03-26,,,,,
2006-03-27,82082.93,5908.15,1816.44,1403.17,1767.26
2006-03-28,81287.27,5825.51,1796.33,1391.95,1750.06
2006-03-29,81964.5,5872.5,1803.94,1392.06,1758.26
2006-03-30,82122.81,5873.05,1810.12,1405.28,1764.1
2006-03-31,81682.79,5841.85,1800.58,1399.18,1755.14
2006-04-01,,,,,
2006-04-02,,,,,
2006-04-03,82398.41,5925.36,1798.69,1378.66,1753.76
2006-04-04,83271.59,6017.56,1819.63,1388.26,1772.13
2006-04-05,85137.73,6223.55,1849.06,1385.46,1799.02
2006-04-06,85290.44,6247.07,1843.62,1374.08,1794.17
2006-04-07,84521.62,6141.02,1830.62,1378.21,1784.5
2006-04-08,,,,,
2006-04-09,,,,,
2006-04-10,85913.03,6306.06,1851.98,1371.04,1803.53
2006-04-11,85544.48,6267.62,1838.35,1362.28,1790.94
2006-04-12,86459.52,6341.62,1850.11,1364.58,1802.08
2006-04-13,,,,,
2006-04-14,,,,,
2006-04-15,,,,,
2006-04-16,,,,,
2006-04-17,88430.21,6560.83,1898.47,1387.91,1845.13
2006-04-18,89546.05,6684.54,1924.8,1397.8,1869.04
2006-04-19,89308.07,6649.18,1912.9,1389.76,1860.12
2006-04-20,88292.88,6549.17,1896.32,1386.88,1844.82
2006-04-21,89773.09,6706.0,1918.73,1385.05,1866.09
2006-04-22,,,,,
2006-04-23,,,,,
2006-04-24,91249.89,6873.25,1943.07,1382.61,1889.6
2006-04-25,90841.51,6818.29,1938.9,1389.58,1884.79
2006-04-26,90078.98,6703.1,1919.74,1389.82,1869.57
2006-04-27,87893.77,6458.58,1869.25,1370.27,1824.39
2006-04-28,90025.91,6695.47,1908.61,1374.39,1859.03
2006-04-29,,,,,
2006-04-30,,,,,
2006-05-01,,,,,
2006-05-02,90542.63,6731.83,1909.8,1370.52,1861.18
2006-05-03,87609.13,6434.3,1855.59,1355.5,1811.36
2006-05-04,87132.05,6373.09,1848.2,1358.98,1805.4
2006-05-05,89144.1,6548.0,1894.48,1390.37,1849.43
2006-05-06,,,,,
2006-05-07,,,,,
2006-05-08,88074.74,6419.13,1872.19,1388.12,1829.9
2006-05-09,89159.84,6550.22,1892.2,1388.7,1846.68
2006-05-10,89283.33,6551.81,1896.21,1396.02,1850.26
2006-05-11,88027.41,6438.86,1857.64,1365.48,1812.97
2006-05-12,85788.66,6250.49,1806.68,1333.75,1762.81
2006-05-13,,,,,
2006-05-14,,,,,
2006-05-15,82915.3,6016.34,1751.75,1301.52,1709.41
2006-05-16,82595.45,5980.96,1744.0,1299.02,1702.5
2006-05-17,79483.65,5711.73,1683.8,1269.4,1643.92
2006-05-18,78064.02,5542.92,1654.02,1262.27,1618.16
2006-05-19,78302.16,5588.71,1655.51,1252.58,1617.76
2006-05-20,,,,,
2006-05-21,,,,,
2006-05-22,75165.09,5350.05,1590.73,1206.9,1553.45
2006-05-23,76597.95,5510.74,1617.19,1208.86,1577.79